CW0133 Weather Reports


time (UTC)temp
C
wind
direction
speed
KPH
gust
KPH
rain 1hr
cm
rain 24hr
cm
rain mn
cm
humidity
%
barometer
mb
20260831000004 36 129 9.7 20.9 0.00 0.00 0.00 40 1013.1
20260830235504 36 129 9.7 20.9 0.00 0.00 0.00 40 1013.1
20260830235004 36 118 8.0 17.7 0.00 0.00 0.00 41 1013.1
20260830234525 36 120 8.0 17.7 0.00 0.00 0.00 40 1013.2
20260830234004 36 124 9.7 19.3 0.00 0.00 0.00 40 1013.3
20260830233504 36 120 11.3 20.9 0.00 0.00 0.00 40 1013.2
20260830233025 36 122 11.3 22.5 0.00 0.00 0.00 39 1013.2
20260830232525 36 131 9.7 22.5 0.00 0.00 0.00 38 1013.2
20260830232004 36 141 9.7 20.9 0.00 0.00 0.00 39 1013.3
20260830231525 37 151 9.7 20.9 0.00 0.00 0.00 38 1013.2
20260830231004 37 168 11.3 20.9 0.00 0.00 0.00 39 1013.2
20260830230504 37 155 11.3 20.9 0.00 0.00 0.00 38 1013.3
20260830230004 37 137 9.7 17.7 0.00 0.00 0.00 38 1013.3
20260830225525 37 136 9.7 19.3 0.00 0.00 0.00 38 1013.3
20260830225004 37 136 9.7 19.3 0.00 0.00 0.00 37 1013.4
20260830224504 37 137 8.0 19.3 0.00 0.00 0.00 37 1013.4
20260830224025 38 151 8.0 17.7 0.00 0.00 0.00 38 1013.4
20260830223504 38 164 6.4 16.1 0.00 0.00 0.00 36 1013.4
20260830223004 38 166 6.4 16.1 0.00 0.00 0.00 37 1013.4
20260830222504 38 166 9.7 20.9 0.00 0.00 0.00 36 1013.5
20260830222004 38 152 9.7 20.9 0.00 0.00 0.00 36 1013.5
20260830221504 38 135 6.4 19.3 0.00 0.00 0.00 35 1013.4
20260830221025 38 126 8.0 22.5 0.00 0.00 0.00 35 1013.5
20260830220504 38 123 9.7 22.5 0.00 0.00 0.00 37 1013.6
20260830220004 38 146 8.0 20.9 0.00 0.00 0.00 36 1013.6
20260830215504 38 150 8.0 17.7 0.00 0.00 0.00 37 1013.7
20260830215004 38 119 9.7 22.5 0.00 0.00 0.00 38 1013.7
20260830214504 38 132 11.3 25.7 0.00 0.00 0.00 38 1013.7
20260830214004 38 150 11.3 25.7 0.00 0.00 0.00 38 1013.9
20260830213504 38 166 11.3 25.7 0.00 0.00 0.00 38 1013.9
20260830213004 38 172 12.9 25.7 0.00 0.00 0.00 38 1013.9
20260830212504 38 164 11.3 25.7 0.00 0.00 0.00 38 1014.0
20260830212004 37 162 9.7 25.7 0.00 0.00 0.00 39 1014.1
20260830211504 37 165 9.7 22.5 0.00 0.00 0.00 39 1014.2
20260830211004 37 152 9.7 20.9 0.00 0.00 0.00 39 1014.2
20260830210525 37 153 9.7 20.9 0.00 0.00 0.00 41 1014.4
20260830210004 37 165 11.3 25.7 0.00 0.00 0.00 39 1014.4
20260830205504 37 172 12.9 25.7 0.00 0.00 0.00 39 1014.6
20260830205025 37 166 12.9 30.6 0.00 0.00 0.00 37 1014.6
20260830204504 38 160 11.3 30.6 0.00 0.00 0.00 38 1014.7
20260830204004 38 139 9.7 22.5 0.00 0.00 0.00 39 1014.8
20260830203504 38 141 11.3 22.5 0.00 0.00 0.00 40 1015.0
20260830203004 37 154 11.3 22.5 0.00 0.00 0.00 40 1015.2
20260830202504 37 142 11.3 22.5 0.00 0.00 0.00 41 1015.2
20260830202025 37 147 11.3 22.5 0.00 0.00 0.00 40 1015.2
20260830201504 37 146 9.7 20.9 0.00 0.00 0.00 43 1015.2
20260830201025 37 139 9.7 19.3 0.00 0.00 0.00 44 1015.3
20260830200504 37 165 11.3 22.5 0.00 0.00 0.00 42 1015.3
20260830200025 37 155 12.9 25.7 0.00 0.00 0.00 43 1015.3
20260830195504 37 147 11.3 25.7 0.00 0.00 0.00 43 1015.5
20260830195004 37 149 9.7 20.9 0.00 0.00 0.00 43 1015.5
20260830194504 37 145 9.7 20.9 0.00 0.00 0.00 43 1015.7
20260830194003 38 153 9.7 22.5 0.00 0.00 0.00 42 1015.8
20260830193504 37 152 9.7 25.7 0.00 0.00 0.00 42 1015.9
20260830193004 37 159 11.3 25.7 0.00 0.00 0.00 43 1015.8
20260830192504 37 161 9.7 22.5 0.00 0.00 0.00 43 1016.0
20260830192004 37 172 9.7 22.5 0.00 0.00 0.00 44 1016.2
20260830191525 37 184 11.3 20.9 0.00 0.00 0.00 46 1016.2
20260830191004 37 172 9.7 22.5 0.00 0.00 0.00 46 1016.2
20260830190504 37 147 8.0 22.5 0.00 0.00 0.00 46 1016.3
20260830190025 37 139 9.7 19.3 0.00 0.00 0.00 46 1016.5
20260830185504 36 141 9.7 22.5 0.00 0.00 0.00 45 1016.5
20260830185004 37 143 9.7 22.5 0.00 0.00 0.00 45 1016.5
20260830184504 37 165 11.3 20.9 0.00 0.00 0.00 47 1016.5
20260830184004 37 174 9.7 20.9 0.00 0.00 0.00 46 1016.6
20260830183503 36 164 9.7 19.3 0.00 0.00 0.00 46 1016.7
20260830183024 36 138 11.3 29.0 0.00 0.00 0.00 47 1017.0
20260830182525 36 127 9.7 29.0 0.00 0.00 0.00 48 1017.0
20260830182024 36 168 11.3 27.4 0.00 0.00 0.00 49 1017.0
20260830181525 36 165 9.7 27.4 0.00 0.00 0.00 50 1017.0
20260830181024 35 124 9.7 22.5 0.00 0.00 0.00 50 1017.1
20260830180504 35 141 11.3 29.0 0.00 0.00 0.00 50 1017.3
20260830180004 35 143 11.3 29.0 0.00 0.00 0.00 52 1017.4
20260830175504 34 164 9.7 20.9 0.00 0.00 0.00 54 1017.4
20260830175004 34 188 11.3 27.4 0.00 0.00 0.00 54 1017.5
20260830174503 34 185 12.9 27.4 0.00 0.00 0.00 55 1017.7
20260830174003 34 178 12.9 25.7 0.00 0.00 0.00 54 1017.9
20260830173524 34 162 9.7 25.7 0.00 0.00 0.00 55 1017.9
20260830173004 33 152 8.0 20.9 0.00 0.00 0.00 55 1018.0
20260830172504 33 168 9.7 20.9 0.00 0.00 0.00 55 1018.1
20260830172003 33 157 11.3 22.5 0.00 0.00 0.00 58 1018.0
20260830171503 33 148 9.7 22.5 0.00 0.00 0.00 56 1018.1
20260830171003 33 165 6.4 20.9 0.00 0.00 0.00 58 1018.0
20260830170503 33 173 9.7 22.5 0.00 0.00 0.00 58 1018.1
20260830170004 33 158 11.3 25.7 0.00 0.00 0.00 57 1018.2
20260830165503 33 136 11.3 25.7 0.00 0.00 0.00 57 1018.1
20260830165003 32 133 9.7 22.5 0.00 0.00 0.00 60 1018.1
20260830164504 32 145 6.4 22.5 0.00 0.00 0.00 63 1018.2
20260830164003 31 159 8.0 20.9 0.00 0.00 0.00 64 1018.2
20260830163504 31 164 9.7 20.9 0.00 0.00 0.00 64 1018.2
20260830163024 31 167 8.0 19.3 0.00 0.00 0.00 66 1018.3
20260830162503 31 172 9.7 19.3 0.00 0.00 0.00 64 1018.4
20260830162003 31 178 9.7 22.5 0.00 0.00 0.00 64 1018.4
20260830161503 31 172 9.7 22.5 0.00 0.00 0.00 64 1018.4
20260830161004 31 146 11.3 20.9 0.00 0.00 0.00 66 1018.2
20260830160504 31 140 11.3 25.7 0.00 0.00 0.00 67 1018.4
20260830160024 30 149 11.3 25.7 0.00 0.00 0.00 67 1018.3
20260830155503 30 163 8.0 20.9 0.00 0.00 0.00 68 1018.3
20260830155003 30 178 8.0 17.7 0.00 0.00 0.00 70 1018.2
20260830154504 30 170 8.0 16.1 0.00 0.00 0.00 72 1018.2
20260830154003 29 168 8.0 17.7 0.00 0.00 0.00 74 1018.2
20260830153503 29 171 9.7 20.9 0.00 0.00 0.00 74 1018.2
20260830153004 28 179 9.7 20.9 0.00 0.00 0.00 74 1018.2
20260830152503 28 187 8.0 19.3 0.00 0.00 0.00 75 1018.1
20260830152004 28 196 8.0 16.1 0.00 0.00 0.00 77 1018.1
20260830151503 28 194 8.0 16.1 0.00 0.00 0.00 78 1018.0
20260830151003 28 183 8.0 17.7 0.00 0.00 0.00 80 1018.1
20260830150503 27 178 9.7 17.7 0.00 0.00 0.00 80 1018.0
20260830150004 27 181 9.7 17.7 0.00 0.00 0.00 80 1018.1
20260830145503 27 188 9.7 17.7 0.00 0.00 0.00 82 1018.1
20260830145003 27 198 9.7 22.5 0.00 0.00 0.00 82 1018.1
20260830144503 27 203 9.7 22.5 0.00 0.00 0.00 83 1018.2
20260830144003 27 201 9.7 20.9 0.00 0.00 0.00 83 1018.3
20260830143503 27 200 9.7 20.9 0.00 0.00 0.00 85 1018.2
20260830143003 26 189 8.0 19.3 0.00 0.00 0.00 87 1018.2
20260830142503 26 180 8.0 19.3 0.00 0.00 0.00 89 1018.3
20260830142024 26 179 8.0 19.3 0.00 0.00 0.00 90 1018.3
20260830141503 26 160 11.3 19.3 0.00 0.00 0.00 91 1018.2
20260830141003 25 152 9.7 19.3 0.00 0.00 0.00 92 1018.3
20260830140503 25 162 8.0 12.9 0.00 0.00 0.00 92 1018.2
20260830140024 25 160 8.0 11.3 0.00 0.00 0.00 93 1018.1
20260830135524 25 166 6.4 12.9 0.00 0.00 0.00 93 1018.1
20260830135003 25 179 6.4 12.9 0.00 0.00 0.00 93 1018.0
20260830134503 24 173 6.4 11.3 0.00 0.00 0.00 93 1017.9
20260830134003 24 163 6.4 11.3 0.00 0.00 0.00 93 1018.0
20260830133503 23 170 6.4 12.9 0.00 0.00 0.00 93 1017.9
20260830133024 23 175 6.4 12.9 0.00 0.00 0.00 93 1017.9
20260830132503 23 180 1.6 8.0 0.00 0.00 0.00 92 1017.8
20260830132003 22 180 1.6 6.4 0.00 0.00 0.00 91 1017.8
20260830131503 22 180 1.6 6.4 0.00 0.00 0.00 91 1017.8
20260830131003 22 180 1.6 3.2 0.00 0.00 0.00 90 1017.7
20260830130503 22 180 0.0 3.2 0.00 0.00 0.00 90 1017.7
20260830130024 22 180 0.0 1.6 0.00 0.00 0.00 90 1017.6
20260830125503 22 180 0.0 1.6 0.00 0.00 0.00 89 1017.6
20260830125003 22 0 0.0 0.0 0.00 0.00 0.00 89 1017.5
20260830124524 22 0 0.0 0.0 0.00 0.00 0.00 89 1017.5
20260830124003 22 0 0.0 0.0 0.00 0.00 0.00 89 1017.4
20260830123524 22 180 0.0 3.2 0.00 0.00 0.00 88 1017.5
20260830123024 22 180 0.0 3.2 0.00 0.00 0.00 88 1017.4
20260830122503 22 180 1.6 3.2 0.00 0.00 0.00 87 1017.4
20260830122003 22 180 1.6 3.2 0.00 0.00 0.00 87 1017.3
20260830121503 22 180 1.6 3.2 0.00 0.00 0.00 87 1017.3
20260830121003 22 180 0.0 3.2 0.00 0.00 0.00 87 1017.3
20260830120524 22 0 0.0 0.0 0.00 0.00 0.00 87 1017.2
20260830120003 22 0 0.0 0.0 0.00 0.00 0.00 87 1017.2
20260830115504 22 0 0.0 0.0 0.00 0.00 0.00 86 1017.2
20260830115025 22 0 0.0 0.0 0.00 0.00 0.00 86 1017.3
20260830114525 22 0 0.0 0.0 0.00 0.00 0.00 86 1017.3
20260830114004 22 0 0.0 0.0 0.00 0.00 0.00 86 1017.3
20260830113504 22 0 0.0 0.0 0.00 0.00 0.00 86 1017.2
20260830113004 22 0 0.0 0.0 0.00 0.00 0.00 86 1017.2
20260830112504 22 0 0.0 0.0 0.00 0.00 0.00 85 1017.2
20260830112004 22 0 0.0 0.0 0.00 0.00 0.00 85 1017.1
20260830111504 22 0 0.0 0.0 0.00 0.00 0.00 85 1017.0
20260830111004 22 180 0.0 1.6 0.00 0.00 0.00 85 1017.0
20260830110504 23 180 0.0 1.6 0.00 0.00 0.00 85 1017.0
20260830110004 23 180 0.0 1.6 0.00 0.00 0.00 84 1017.0
20260830105504 23 180 0.0 1.6 0.00 0.00 0.00 85 1016.9
20260830105004 23 0 0.0 0.0 0.00 0.00 0.00 84 1016.9
20260830104504 23 0 0.0 0.0 0.00 0.00 0.00 84 1016.8
20260830104004 23 0 0.0 0.0 0.00 0.00 0.00 84 1016.7
20260830103504 23 180 0.0 3.2 0.00 0.00 0.00 83 1016.7
20260830103004 23 180 0.0 3.2 0.00 0.00 0.00 84 1016.6
20260830102504 23 180 0.0 1.6 0.00 0.00 0.00 83 1016.6
20260830102025 23 180 0.0 1.6 0.00 0.00 0.00 83 1016.7
20260830101504 23 180 0.0 1.6 0.00 0.00 0.00 83 1016.7
20260830101004 24 180 0.0 1.6 0.00 0.00 0.00 83 1016.7
20260830100504 24 180 0.0 1.6 0.00 0.00 0.00 83 1016.7
20260830100004 24 180 0.0 3.2 0.00 0.00 0.00 83 1016.8
20260830095525 24 180 1.6 3.2 0.00 0.00 0.00 82 1016.7
20260830095004 24 180 1.6 3.2 0.00 0.00 0.00 82 1016.7
20260830094504 24 180 1.6 3.2 0.00 0.00 0.00 82 1016.7
20260830094004 24 180 1.6 3.2 0.00 0.00 0.00 82 1016.7
20260830093504 25 180 1.6 3.2 0.00 0.00 0.00 81 1016.7
20260830093004 25 180 1.6 3.2 0.00 0.00 0.00 81 1016.6
20260830092525 25 180 1.6 3.2 0.00 0.00 0.00 81 1016.6
20260830092004 25 180 1.6 6.4 0.00 0.00 0.00 80 1016.6
20260830091504 25 180 3.2 6.4 0.00 0.00 0.00 80 1016.6
20260830091004 25 180 3.2 6.4 0.00 0.00 0.00 80 1016.6
20260830090504 25 180 1.6 6.4 0.00 0.00 0.00 80 1016.7
20260830090004 25 180 0.0 3.2 0.00 0.00 0.00 80 1016.8
20260830085504 25 180 1.6 6.4 0.00 0.00 0.00 80 1016.7
20260830085004 25 180 3.2 6.4 0.00 0.00 0.00 80 1016.7
20260830084504 25 180 3.2 8.0 0.00 0.00 0.00 80 1016.7
20260830084003 25 180 3.2 9.7 0.00 0.00 0.00 80 1016.8
20260830083503 25 176 3.2 9.7 0.00 0.00 0.00 79 1016.8
20260830083004 25 171 3.2 9.7 0.00 0.00 0.00 79 1016.7
20260830082504 25 171 3.2 8.0 0.00 0.00 0.00 79 1016.8
20260830082004 25 171 3.2 8.0 0.00 0.00 0.00 79 1016.8
20260830081504 26 171 3.2 8.0 0.00 0.00 0.00 78 1016.8
20260830081025 26 173 3.2 9.7 0.00 0.00 0.00 78 1016.9
20260830080504 26 176 3.2 9.7 0.00 0.00 0.00 78 1016.9
20260830080004 26 178 3.2 9.7 0.00 0.00 0.00 78 1017.0
20260830075504 26 175 3.2 9.7 0.00 0.00 0.00 77 1017.1
20260830075004 26 168 3.2 9.7 0.00 0.00 0.00 77 1017.1
20260830074504 26 160 3.2 9.7 0.00 0.00 0.00 77 1017.1
20260830074004 26 159 6.4 11.3 0.00 0.00 0.00 77 1017.1
20260830073504 26 169 6.4 11.3 0.00 0.00 0.00 77 1017.1
20260830073004 26 171 6.4 9.7 0.00 0.00 0.00 77 1017.2
20260830072524 26 165 6.4 9.7 0.00 0.00 0.00 76 1017.2
20260830072003 26 165 6.4 9.7 0.00 0.00 0.00 76 1017.2
20260830071524 26 161 6.4 9.7 0.00 0.00 0.00 76 1017.2
20260830071003 26 158 6.4 9.7 0.00 0.00 0.00 76 1017.3
20260830070524 26 160 6.4 9.7 0.00 0.00 0.00 75 1017.3
20260830070003 27 167 6.4 9.7 0.00 0.00 0.00 75 1017.4
20260830065503 27 173 6.4 9.7 0.00 0.00 0.00 75 1017.4
20260830065024 27 172 6.4 11.3 0.00 0.00 0.00 75 1017.4
20260830064503 27 165 6.4 11.3 0.00 0.00 0.00 74 1017.4
20260830064004 27 164 6.4 11.3 0.00 0.00 0.00 74 1017.3
20260830063504 27 163 6.4 12.9 0.00 0.00 0.00 74 1017.1
20260830063004 27 158 6.4 12.9 0.00 0.00 0.00 74 1017.2
20260830062504 27 167 8.0 17.7 0.00 0.00 0.00 73 1017.1
20260830062004 27 174 8.0 17.7 0.00 0.00 0.00 73 1017.2
20260830061525 27 169 8.0 17.7 0.00 0.00 0.00 73 1017.2
20260830061003 27 170 9.7 16.1 0.00 0.00 0.00 73 1017.1
20260830060503 27 171 8.0 16.1 0.00 0.00 0.00 72 1017.1
20260830060004 27 169 8.0 16.1 0.00 0.00 0.00 72 1017.0
20260830055525 28 167 8.0 16.1 0.00 0.00 0.00 72 1017.1
20260830055003 28 170 6.4 12.9 0.00 0.00 0.00 72 1017.0
20260830054503 28 168 8.0 16.1 0.00 0.00 0.00 72 1017.0
20260830054024 28 158 6.4 16.1 0.00 0.00 0.00 71 1017.0
20260830053503 28 158 6.4 12.9 0.00 0.00 0.00 71 1017.0
20260830053003 28 172 8.0 16.1 0.00 0.00 0.00 71 1017.0
20260830052525 28 172 9.7 16.1 0.00 0.00 0.00 70 1017.1
20260830052003 28 169 8.0 12.9 0.00 0.00 0.00 70 1017.1
20260830051503 28 168 8.0 12.9 0.00 0.00 0.00 70 1017.1
20260830051003 28 166 8.0 12.9 0.00 0.00 0.00 69 1017.0
20260830050503 28 165 8.0 17.7 0.00 0.00 0.00 69 1017.1
20260830050004 28 164 8.0 17.7 0.00 0.00 0.00 69 1016.9
20260830045504 29 168 8.0 17.7 0.00 0.00 0.00 68 1017.1
20260830045003 29 168 6.4 16.1 0.00 0.00 0.00 68 1017.0
20260830044524 29 163 6.4 11.3 0.00 0.00 0.00 68 1017.0
20260830044004 29 159 8.0 19.3 0.00 0.00 0.00 67 1017.0
20260830043504 29 157 8.0 19.3 0.00 0.00 0.00 68 1017.1
20260830043003 30 157 8.0 16.1 0.00 0.00 0.00 67 1017.1
20260830042504 30 154 8.0 16.1 0.00 0.00 0.00 67 1017.0
20260830042003 30 161 8.0 16.1 0.00 0.00 0.00 66 1017.1
20260830041503 30 166 8.0 17.7 0.00 0.00 0.00 66 1017.1
20260830041003 30 160 9.7 17.7 0.00 0.00 0.00 66 1017.1
20260830040504 30 163 9.7 17.7 0.00 0.00 0.00 65 1017.0
20260830040003 30 156 9.7 19.3 0.00 0.00 0.00 65 1017.0
20260830035504 30 150 8.0 19.3 0.00 0.00 0.00 65 1017.0
20260830035003 30 157 9.7 20.9 0.00 0.00 0.00 64 1016.8
20260830034503 30 150 9.7 20.9 0.00 0.00 0.00 64 1016.9
20260830034003 30 138 9.7 25.7 0.00 0.00 0.00 63 1017.0
20260830033503 30 139 9.7 25.7 0.00 0.00 0.00 63 1016.9
20260830033003 31 141 8.0 30.6 0.00 0.00 0.00 63 1016.8
20260830032503 31 137 9.7 30.6 0.00 0.00 0.00 62 1016.8
20260830032003 31 137 9.7 19.3 0.00 0.00 0.00 62 1016.8
20260830031503 31 147 8.0 17.7 0.00 0.00 0.00 62 1016.8
20260830031004 31 149 9.7 20.9 0.00 0.00 0.00 61 1016.7
20260830030503 31 140 9.7 20.9 0.00 0.00 0.00 61 1016.7
20260830030004 31 134 9.7 20.9 0.00 0.00 0.00 60 1016.5
20260830025524 31 138 8.0 19.3 0.00 0.00 0.00 59 1016.5
20260830025003 31 140 9.7 22.5 0.00 0.00 0.00 58 1016.3
20260830024503 31 130 9.7 29.0 0.00 0.00 0.00 57 1016.2
20260830024003 31 123 8.0 29.0 0.00 0.00 0.00 57 1016.3
20260830023503 31 120 8.0 17.7 0.00 0.00 0.00 57 1016.1
20260830023004 31 118 9.7 19.3 0.00 0.00 0.00 57 1015.9
20260830022524 31 117 9.7 19.3 0.00 0.00 0.00 56 1015.8
20260830022003 31 118 8.0 17.7 0.00 0.00 0.00 57 1015.7
20260830021503 31 122 6.4 16.1 0.00 0.00 0.00 56 1015.7
20260830021003 31 118 6.4 12.9 0.00 0.00 0.00 56 1015.5
20260830020503 31 112 6.4 19.3 0.00 0.00 0.00 56 1015.5
20260830020003 31 119 6.4 19.3 0.00 0.00 0.00 56 1015.2
20260830015503 31 129 3.2 9.7 0.00 0.00 0.00 56 1015.2
20260830015003 31 135 1.6 8.0 0.00 0.00 0.00 56 1015.2
20260830014503 32 144 1.6 3.2 0.00 0.00 0.00 55 1015.1
20260830014024 32 144 1.6 3.2 0.00 0.00 0.00 54 1015.0
20260830013503 32 144 1.6 3.2 0.00 0.00 0.00 54 1014.8
20260830013003 33 144 1.6 3.2 0.00 0.00 0.00 53 1014.8
20260830012503 33 144 1.6 3.2 0.00 0.00 0.00 52 1014.7
20260830012003 33 144 0.0 3.2 0.00 0.00 0.00 51 1014.8
20260830011503 33 144 1.6 3.2 0.00 0.00 0.00 50 1014.7
20260830011003 34 144 3.2 8.0 0.00 0.00 0.00 50 1014.7
20260830010503 34 144 3.2 8.0 0.00 0.00 0.00 47 1014.7
20260830010003 34 144 3.2 8.0 0.00 0.00 0.00 46 1014.7
20260830005503 34 138 3.2 8.0 0.00 0.00 0.00 46 1014.7
20260830005003 35 135 3.2 9.7 0.00 0.00 0.00 46 1014.7
20260830004503 35 136 6.4 9.7 0.00 0.00 0.00 46 1014.8
20260830004003 35 140 6.4 9.7 0.00 0.00 0.00 45 1014.7
20260830003524 35 145 6.4 12.9 0.00 0.00 0.00 44 1014.8
20260830003003 35 140 8.0 17.7 0.00 0.00 0.00 44 1014.7
20260830002503 35 139 8.0 17.7 0.00 0.00 0.00 44 1014.7
20260830002024 35 146 6.4 17.7 0.00 0.00 0.00 44 1014.7
20260830001503 35 170 8.0 17.7 0.00 0.00 0.00 44 1014.7
20260830001024 35 181 8.0 17.7 0.00 0.00 0.00 43 1014.6
20260830000503 36 169 9.7 17.7 0.00 0.00 0.00 43 1014.6